TimeEDT,TemperatureF,Dew PointF,Humidity,Sea Level PressureIn,VisibilityMPH,Wind Direction,Wind SpeedMPH,Gust SpeedMPH,PrecipitationIn,Events,Conditions,WindDirDegrees,DateUTC
12:15 AM,56.3,36.9,48,30.25,10.0,NNW,3.5,-,N/A,,Clear,340,2013-05-26 04:15:00
12:35 AM,56.1,37.8,50,30.25,10.0,Calm,Calm,-,N/A,,Clear,0,2013-05-26 04:35:00
12:55 AM,56.1,38.7,52,30.25,10.0,NNW,5.8,-,N/A,,Clear,330,2013-05-26 04:55:00
1:15 AM,56.8,38.7,51,30.25,10.0,North,8.1,-,N/A,,Clear,360,2013-05-26 05:15:00
1:35 AM,56.7,39.2,52,30.25,10.0,North,9.2,-,N/A,,Clear,360,2013-05-26 05:35:00
1:55 AM,56.3,39.4,53,30.25,10.0,NNW,6.9,-,N/A,,Clear,340,2013-05-26 05:55:00
2:15 AM,55.8,39.4,54,30.25,10.0,NNW,3.5,-,N/A,,Clear,340,2013-05-26 06:15:00
2:35 AM,54.3,40.8,60,30.25,10.0,Calm,Calm,-,N/A,,Clear,0,2013-05-26 06:35:00
2:55 AM,52.7,42.4,68,30.25,10.0,Calm,Calm,-,N/A,,Clear,0,2013-05-26 06:55:00
3:15 AM,52.2,42.6,70,30.24,10.0,SE,3.5,-,N/A,,Clear,130,2013-05-26 07:15:00
3:35 AM,53.1,41.9,66,30.23,10.0,SE,3.5,-,N/A,,Clear,130,2013-05-26 07:35:00
3:55 AM,50.9,44.2,78,30.24,10.0,Calm,Calm,-,N/A,,Clear,0,2013-05-26 07:55:00
4:15 AM,50.5,44.1,78,30.24,10.0,Calm,Calm,-,N/A,,Scattered Clouds,0,2013-05-26 08:15:00
4:35 AM,50.2,44.6,81,30.24,10.0,Calm,Calm,-,N/A,,Scattered Clouds,0,2013-05-26 08:35:00
4:55 AM,50.0,46.4,87,30.25,10.0,Calm,Calm,-,N/A,,Mostly Cloudy,0,2013-05-26 08:55:00
5:15 AM,50.0,46.0,86,30.25,10.0,Calm,Calm,-,N/A,,Overcast,0,2013-05-26 09:15:00
5:35 AM,50.2,46.4,87,30.25,10.0,Calm,Calm,-,N/A,,Overcast,0,2013-05-26 09:35:00
5:55 AM,50.0,46.9,89,30.26,10.0,Calm,Calm,-,N/A,,Overcast,0,2013-05-26 09:55:00
6:15 AM,49.5,46.9,91,30.27,10.0,Calm,Calm,-,N/A,,Overcast,0,2013-05-26 10:15:00
6:35 AM,50.4,48.0,92,30.28,10.0,Calm,Calm,-,N/A,,Overcast,0,2013-05-26 10:35:00
6:55 AM,51.4,47.8,87,30.28,10.0,Calm,Calm,-,N/A,,Overcast,0,2013-05-26 10:55:00
7:15 AM,52.2,47.3,83,30.28,10.0,Calm,Calm,-,N/A,,Overcast,0,2013-05-26 11:15:00
7:35 AM,53.1,48.2,84,30.28,10.0,Calm,Calm,-,N/A,,Overcast,0,2013-05-26 11:35:00
7:55 AM,53.8,49.1,84,30.29,10.0,Calm,Calm,-,N/A,,Overcast,0,2013-05-26 11:55:00
8:15 AM,55.6,48.6,77,30.29,10.0,Calm,Calm,-,N/A,,Overcast,0,2013-05-26 12:15:00
8:35 AM,56.5,47.7,72,30.29,10.0,Calm,Calm,-,N/A,,Overcast,0,2013-05-26 12:35:00
8:55 AM,58.1,46.2,65,30.30,10.0,Calm,Calm,-,N/A,,Overcast,0,2013-05-26 12:55:00
9:15 AM,58.1,47.1,67,30.30,10.0,Calm,Calm,-,N/A,,Overcast,0,2013-05-26 13:15:00
9:35 AM,60.8,46.2,59,30.30,10.0,Calm,Calm,-,N/A,,Overcast,0,2013-05-26 13:35:00
9:55 AM,59.9,46.4,61,30.30,10.0,Calm,Calm,-,N/A,,Overcast,0,2013-05-26 13:55:00
10:15 AM,60.8,48.2,63,30.30,10.0,Calm,Calm,-,N/A,,Overcast,0,2013-05-26 14:15:00
10:35 AM,61.0,48.6,64,30.30,10.0,Calm,Calm,-,N/A,,Overcast,0,2013-05-26 14:35:00
10:55 AM,64.2,46.8,53,30.30,10.0,SW,4.6,-,N/A,,Mostly Cloudy,230,2013-05-26 14:55:00
11:15 AM,65.7,44.4,46,30.29,10.0,Calm,Calm,-,N/A,,Scattered Clouds,0,2013-05-26 15:15:00
11:35 AM,67.1,45.7,46,30.28,10.0,NNW,4.6,-,N/A,,Clear,340,2013-05-26 15:35:00
11:55 AM,68.0,44.8,43,30.28,10.0,WSW,3.5,-,N/A,,Clear,240,2013-05-26 15:55:00
12:15 PM,68.5,43.9,41,30.27,10.0,SW,5.8,-,N/A,,Clear,230,2013-05-26 16:15:00
12:35 PM,69.8,42.8,38,30.27,10.0,Calm,Calm,-,N/A,,Clear,0,2013-05-26 16:35:00
12:55 PM,70.2,41.9,36,30.27,10.0,North,3.5,-,N/A,,Clear,350,2013-05-26 16:55:00
1:15 PM,71.4,42.4,35,30.25,10.0,WNW,4.6,-,N/A,,Clear,300,2013-05-26 17:15:00
1:35 PM,72.9,42.3,33,30.23,10.0,NW,11.5,-,N/A,,Clear,310,2013-05-26 17:35:00
1:55 PM,72.7,41.5,32,30.23,10.0,NNW,8.1,-,N/A,,Clear,330,2013-05-26 17:55:00
2:15 PM,73.4,41.4,31,30.22,10.0,North,8.1,-,N/A,,Clear,10,2013-05-26 18:15:00
2:35 PM,73.9,41.9,32,30.22,10.0,North,9.2,-,N/A,,Clear,10,2013-05-26 18:35:00
2:55 PM,74.5,42.6,32,30.22,10.0,North,9.2,-,N/A,,Clear,10,2013-05-26 18:55:00
3:15 PM,75.0,40.1,28,30.22,10.0,North,4.6,-,N/A,,Clear,350,2013-05-26 19:15:00
3:35 PM,76.6,41.4,28,30.21,10.0,WNW,4.6,-,N/A,,Clear,300,2013-05-26 19:35:00
3:55 PM,75.9,41.0,29,30.21,10.0,NNW,9.2,-,N/A,,Clear,330,2013-05-26 19:55:00
4:15 PM,76.3,40.3,27,30.20,10.0,NW,8.1,-,N/A,,Clear,320,2013-05-26 20:15:00
4:35 PM,75.2,40.5,29,30.20,10.0,NNW,6.9,-,N/A,,Clear,330,2013-05-26 20:35:00
4:55 PM,76.6,40.3,27,30.20,10.0,North,8.1,-,N/A,,Clear,360,2013-05-26 20:55:00
5:15 PM,75.4,40.8,29,30.19,10.0,North,4.6,-,N/A,,Clear,350,2013-05-26 21:15:00
5:35 PM,74.8,39.9,28,30.20,10.0,North,3.5,-,N/A,,Clear,360,2013-05-26 21:35:00
5:55 PM,75.0,41.9,30,30.19,10.0,Calm,Calm,-,N/A,,Clear,0,2013-05-26 21:55:00
6:15 PM,75.2,42.3,31,30.20,10.0,North,3.5,-,N/A,,Clear,350,2013-05-26 22:15:00
6:35 PM,74.8,42.1,31,30.20,10.0,North,4.6,-,N/A,,Clear,360,2013-05-26 22:35:00
6:55 PM,74.8,41.7,30,30.20,10.0,North,3.5,-,N/A,,Clear,350,2013-05-26 22:55:00
7:15 PM,73.8,42.1,32,30.20,10.0,Calm,Calm,-,N/A,,Clear,0,2013-05-26 23:15:00
7:35 PM,72.1,39.9,31,30.20,10.0,Calm,Calm,-,N/A,,Clear,0,2013-05-26 23:35:00
7:55 PM,64.2,50.4,61,30.21,10.0,Calm,Calm,-,N/A,,Clear,0,2013-05-26 23:55:00
8:15 PM,62.6,52.9,70,30.21,10.0,Calm,Calm,-,N/A,,Clear,0,2013-05-27 00:15:00
8:35 PM,59.7,53.8,81,30.22,10.0,Calm,Calm,-,N/A,,Clear,0,2013-05-27 00:35:00
8:55 PM,57.9,52.7,83,30.22,10.0,Calm,Calm,-,N/A,,Clear,0,2013-05-27 00:55:00
9:15 PM,56.3,51.1,83,30.23,10.0,Calm,Calm,-,N/A,,Clear,0,2013-05-27 01:15:00
9:35 PM,54.5,51.4,89,30.23,10.0,Calm,Calm,-,N/A,,Clear,0,2013-05-27 01:35:00
9:55 PM,54.1,50.7,88,30.24,10.0,Calm,Calm,-,N/A,,Clear,0,2013-05-27 01:55:00
10:15 PM,54.1,50.5,88,30.25,10.0,Calm,Calm,-,N/A,,Clear,0,2013-05-27 02:15:00
10:35 PM,53.1,50.2,90,30.25,10.0,Calm,Calm,-,N/A,,Clear,0,2013-05-27 02:35:00
10:55 PM,52.5,50.5,93,30.25,10.0,Calm,Calm,-,N/A,,Clear,0,2013-05-27 02:55:00
11:15 PM,52.2,50.2,93,30.25,10.0,Calm,Calm,-,N/A,,Clear,0,2013-05-27 03:15:00
11:35 PM,51.1,49.6,95,30.25,10.0,Calm,Calm,-,N/A,,Clear,0,2013-05-27 03:35:00
11:55 PM,50.4,49.3,96,30.25,10.0,Calm,Calm,-,N/A,,Clear,0,2013-05-27 03:55:00